Location: Potomac
(46.8816°N, 113.5795°W)
Time: 10:16:39
(UTC+00:00)

CUBESAT XI-V - Visible Passes

Search period start: 29 June 2022 00:00
Search period end: 09 July 2022 00:00
Orbit: 666 x 692 km, 98.1° (Epoch: 28 June)

Date Brightness Start Highest point End Pass type
(mag) Time Alt. Az. Time Alt. Az. Time Alt. Az.
29 Jun ? 08:19:32 11° SE 08:23:15 29° ENE 08:27:14 10° N visible
29 Jun ? 09:57:56 20° SSW 10:00:27 34° W 10:04:39 10° NNW visible
30 Jun ? 08:55:29 20° SSE 08:58:35 62° ENE 09:03:08 10° N visible
30 Jun ? 10:33:53 11° WSW 10:36:17 16° W 10:39:07 10° NW visible
01 Jul ? 07:54:10 10° ESE 07:57:15 18° ENE 08:00:20 10° NNE visible
01 Jul ? 09:31:26 24° S 09:34:06 61° W 09:38:39 10° NNW visible
02 Jul ? 08:28:59 14° SE 08:32:27 35° ENE 08:36:37 10° N visible
02 Jul ? 10:07:23 18° SW 10:09:47 28° W 10:13:44 10° NW visible
03 Jul ? 07:30:12 10° ENE 07:31:21 11° NE 07:32:29 10° NE visible
03 Jul ? 09:04:57 23° SSE 09:07:49 76° ENE 09:12:26 10° N visible
03 Jul ? 10:43:31 10° WSW 10:45:39 13° W 10:47:47 10° WNW visible
04 Jul ? 08:02:58 10° ESE 08:06:25 21° ENE 08:09:51 10° NNE visible
04 Jul ? 09:40:54 24° SSW 09:43:22 49° W 09:47:50 10° NNW visible
05 Jul ? 08:38:28 17° SE 08:41:39 43° ENE 08:45:59 10° N visible
05 Jul ? 10:16:51 16° SW 10:19:07 23° W 10:22:45 10° NW visible
06 Jul ? 07:38:23 10° E 07:40:28 13° ENE 07:42:32 10° NNE visible
06 Jul ? 09:14:25 25° SSE 09:17:03 88° WSW 09:21:41 10° NNW visible
06 Jul ? 10:54:18 10° W 10:55:02 10° W 10:55:45 10° WNW visible
07 Jul ? 08:11:58 11° ESE 08:15:34 25° ENE 08:19:19 10° N visible
07 Jul ? 09:50:22 23° SSW 09:52:40 40° W 09:56:59 10° NNW visible
08 Jul ? 08:47:55 20° SE 08:50:51 52° ENE 08:55:19 10° N visible
08 Jul ? 10:26:20 14° SW 10:28:26 19° W 10:31:41 10° NW visible
